Temp
10 12 13 11 10 10 9 11 10 8 8 8 7 6 9 8 7 8 9 9 9 9 10 10 10 10 9 9 8 7 6 6 5 4 3 4 4 4 4 4 5 6 7 7
11 13 10 9 9 10 10 10 9 9 9 8 7 8 8 7 10 11 10 8 8 10 8 8 9 9 8 8 7 6 4 4 3 2 2 2 2 2 2 2 3 3 4 5
11 11 9 11 10 11 9 10 10 9 8 7 6 9 10 12 11 9 9 8 9 8 7 6 7 7 7 6 6 5 3 2 1 1 0 0 0 0 1 1 2 2 3 4
11 9 10 10 11 10 12 9 8 8 7 7 7 7 9 10 10 10 8 8 9 7 6 6 5 6 5 5 4 3 2 0 -0 -0 -1 -1 -1 -1 -1 -0 0 1 1 2
11 9 10 10 11 9 10 8 8 8 6 6 7 5 8 9 10 9 7 7 8 7 5 5 4 5 4 4 3 1 0 -1 -1 -2 -2 -2 -2 -2 -2 -2 -1 -1 -0 1
8 8 9 10 9 9 7 7 7 5 6 3 7 7 9 9 10 11 9 7 8 5 4 3 4 4 3 2 1 -0 -1 -2 -2 -2 -3 -3 -3 -2 -2 -2 -2 -2 -1 -1
10 9 8 8 9 8 8 6 3 6 3 6 6 7 9 10 9 10 8 7 6 4 3 2 2 2 2 1 -1 -2 -2 -3 -3 -3 -3 -3 -3 -3 -2 -2 -2 -2 -1 -1
9 10 8 8 9 9 7 6 5 8 7 6 6 6 10 9 9 7 7 7 5 3 2 1 1 1 1 -0 -2 -3 -3 -4 -4 -3 -3 -3 -3 -2 -2 -2 -2 -2 -1 -1
9 11 7 7 7 7 6 5 5 -0 -3 1 4 6 8 8 6 7 6 6 4 3 2 1 1 1 -0 -2 -3 -3 -4 -4 -4 -4 -4 -3 -3 -2 -2 -2 -2 -2 -2 -2
10 8 7 6 7 6 6 5 6 1 7 6 5 5 8 12 12 6 5 6 3 3 1 0 0 -0 -1 -2 -3 -4 -4 -5 -4 -4 -3 -3 -3 -3 -2 -2 -1 -1 -1 -2
8 9 7 7 6 6 5 3 2 3 4 4 2 7 5 8 9 5 4 5 3 1 0 -0 -1 -1 -2 -3 -4 -5 -5 -5 -4 -4 -4 -3 -3 -3 -3 -2 -2 -0 -1 -1
8 7 6 8 6 6 7 6 3 4 5 1 1 6 8 6 5 5 4 4 2 1 -0 -1 -2 -2 -3 -4 -4 -5 -5 -5 -5 -4 -4 -4 -3 -3 -3 -3 -2 -2 -1 -1
7 5 6 8 7 6 6 6 4 -2 -1 2 2 7 7 7 6 5 4 3 1 0 -1 -2 -3 -3 -4 -5 -5 -5 -5 -5 -5 -5 -4 -4 -4 -4 -4 -3 -3 -2 -2 -1
7 4 7 11 11 6 6 6 4 2 -0 1 4 7 11 10 4 4 3 1 -1 -2 -2 -4 -3 -2 -4 -5 -6 -6 -6 -5 -6 -5 -5 -5 -5 -4 -4 -3 -3 -2 -2 -2
6 5 2 3 4 6 6 5 4 3 2 7 11 3 8 3 2 1 -1 -1 -0 -1 -3 -4 -2 -2 -3 -5 -6 -6 -6 -5 -6 -6 -6 -6 -5 -4 -4 -4 -3 -3 -2 -2
4 4 4 4 3 3 4 5 5 5 4 3 6 6 10 9 6 1 1 -3 -2 -2 -5 -2 -2 -2 -4 -6 -6 -7 -6 -5 -5 -6 -6 -6 -5 -5 -5 -4 -4 -3 -3 -2
4 3 2 5 4 4 6 7 6 3 2 4 4 7 1 2 -1 -3 -1 -3 -2 -3 -6 -2 -5 -3 -5 -6 -7 -7 -6 -5 -5 -6 -6 -6 -5 -5 -5 -5 -4 -4 -4 -3
3 2 -0 2 2 6 11 7 6 6 4 3 3 3 3 1 -1 -1 -4 -3 -2 -5 -4 -3 -6 -4 -5 -5 -5 -5 -5 -5 -5 -5 -6 -6 -5 -5 -5 -5 -5 -4 -4 -4
3 3 -2 3 -1 7 13 4 4 5 9 5 5 7 6 3 3 3 -3 -4 -2 -5 -5 -3 -3 -4 -4 -4 -5 -5 -5 -5 -5 -5 -5 -5 -5 -5 -5 -5 -5 -5 -4 -4
2 1 1 -5 2 5 10 7 4 6 8 7 6 6 5 4 6 2 -5 -7 -5 -5 -2 -3 -3 -3 -4 -3 -4 -5 -5 -5 -6 -5 -4 -5 -5 -5 -5 -5 -5 -5 -5 -5
1 -3 -2 -7 -1 2 7 6 4 9 12 6 4 6 4 5 3 -1 -9 -5 -5 -4 -3 -2 -3 -3 -3 -3 -4 -4 -5 -5 -5 -4 -4 -3 -4 -4 -4 -4 -4 -4 -5 -5
2 1 -3 -7 -2 4 4 5 8 10 10 9 5 5 4 4 3 -3 -4 -1 -2 -4 -6 -4 -5 -3 -2 -3 -4 -4 -4 -4 -4 -3 -3 -3 -3 -3 -2 -3 -3 -3 -4 -4
4 3 1 2 5 6 3 6 6 5 6 9 8 7 4 4 4 2 -1 -2 -1 -5 -5 -3 -3 -3 -2 -3 -3 -4 -3 -3 -3 -2 -2 -2 -2 -2 -2 -2 -2 -3 -3 -5
0 2 2 3 7 5 5 5 5 4 4 5 5 6 4 4 4 3 0 -1 -1 -3 -4 -3 -4 -4 -3 -2 -2 -3 -3 -3 -3 -2 -3 -2 -2 -2 -2 -3 -3 -3 -3 -4
2 2 1 2 5 6 7 4 5 5 4 3 3 3 3 3 3 2 1 -1 -2 -2 -3 -3 -4 -4 -2 -1 -1 -2 -3 -3 -3 -3 -3 -3 -3 -3 -4 -4 -4 -4 -4 -4
-0 2 4 7 7 8 9 9 6 4 5 5 3 3 1 1 3 2 1 -0 -1 -3 -3 -4 -3 -3 -1 -1 -1 -2 -2 -3 -3 -3 -3 -3 -3 -3 -3 -3 -3 -4 -4 -4
Height
781 783 782 790 790 794 800 798 803 805 802 802 799 797 773 773 773 766 765 765 767 768 767 767 767 766 764 760 757 755 752 751 750 746 742 738 733 731 728 728 727 727 727 728
782 779 791 795 794 794 797 801 806 803 801 806 803 785 774 770 762 757 762 768 768 767 768 767 764 762 759 756 755 752 750 748 745 742 738 734 729 725 723 720 719 718 719 719
783 788 793 791 793 791 799 802 802 805 808 809 809 779 764 757 757 761 763 766 767 768 766 763 761 760 758 754 751 749 746 744 740 736 731 727 724 719 716 713 711 711 711 710
786 792 791 793 791 793 786 803 804 809 814 821 807 813 771 762 762 762 765 766 763 765 765 763 762 759 756 753 750 747 743 739 736 732 727 723 719 714 711 708 705 703 702 701
781 794 791 791 790 795 797 805 806 810 821 824 809 831 779 770 764 762 764 765 763 764 763 761 760 758 754 751 748 743 738 734 731 726 724 720 715 710 705 701 698 696 694 693
792 793 791 790 798 799 806 807 812 822 823 854 811 813 781 768 755 749 756 761 762 763 761 759 756 754 751 747 744 739 734 729 725 721 718 714 709 704 699 695 691 688 685 683
788 790 795 795 797 803 804 814 851 836 855 826 818 813 770 753 754 749 754 760 761 762 759 756 753 749 745 742 739 734 730 723 719 716 711 707 702 697 692 687 683 679 676 674
788 790 795 796 795 795 806 815 835 823 829 827 821 817 760 752 750 754 755 757 762 758 755 752 749 747 744 741 736 732 726 719 715 711 706 701 696 691 685 680 676 670 666 664
789 778 799 800 800 804 810 822 819 866 892 865 822 794 758 752 755 754 757 756 758 756 752 749 747 745 742 738 733 729 722 716 712 707 701 694 689 683 676 671 666 660 657 654
772 791 798 803 802 807 806 815 820 847 818 832 819 813 773 737 734 755 758 755 757 752 751 748 745 742 740 736 731 726 720 714 709 702 695 688 681 674 667 660 654 648 645 644
775 777 804 801 804 801 816 825 833 827 832 840 861 789 762 748 742 756 757 754 755 752 750 747 743 741 738 734 729 722 717 710 704 697 690 682 674 666 660 653 644 637 634 634
774 782 799 789 798 798 797 803 816 823 825 853 855 790 742 748 750 750 751 751 750 747 746 744 742 739 736 733 727 721 714 707 701 694 686 678 670 662 654 646 637 631 626 623
776 791 804 791 797 799 797 797 807 838 843 838 841 772 743 745 744 747 747 748 746 744 743 742 740 737 736 732 727 720 712 705 699 691 683 675 667 658 651 642 632 625 619 615
772 792 779 754 757 784 791 791 801 816 842 832 797 763 723 728 747 743 745 745 745 745 741 739 737 735 734 730 725 718 711 704 698 690 682 674 665 657 649 640 631 621 613 609
777 789 799 793 788 780 780 784 793 800 800 781 733 780 734 748 748 742 744 741 740 739 737 735 734 733 732 728 723 717 710 703 697 689 682 674 665 656 648 639 631 622 613 608
784 790 791 790 790 791 786 777 780 777 782 787 767 760 718 722 730 739 736 742 737 736 737 731 731 731 731 727 723 717 710 702 696 689 682 675 666 658 650 641 633 624 617 612
785 793 799 785 788 786 773 749 757 767 771 762 772 728 740 735 742 744 735 737 733 732 735 729 730 729 728 725 722 717 711 703 696 690 684 677 669 662 654 647 639 630 624 619
787 791 809 802 800 779 717 731 736 743 745 749 744 734 731 734 734 730 728 727 725 728 728 725 726 726 724 722 720 717 712 705 697 691 687 680 673 666 659 652 645 639 632 627
782 786 820 794 824 753 705 742 745 744 715 720 721 714 716 725 725 715 713 715 716 720 721 722 722 722 721 719 718 716 712 706 698 692 688 684 678 672 665 659 653 648 642 635
784 789 798 842 801 776 713 723 733 731 727 700 711 711 718 723 724 720 710 711 714 715 717 719 719 719 718 718 717 714 711 706 701 696 692 688 682 676 671 666 661 657 652 648
790 811 813 848 816 772 718 724 732 729 700 700 707 706 715 717 709 705 708 708 709 711 713 715 716 715 715 716 715 713 711 707 704 700 696 691 686 681 677 673 668 663 660 656
766 784 812 843 824 769 720 728 719 697 692 693 702 703 705 703 701 705 705 704 706 708 710 711 712 711 713 714 713 712 710 708 705 702 698 695 691 687 683 678 674 671 668 666
749 743 757 754 734 709 712 702 700 700 701 693 693 694 698 699 697 695 698 701 701 703 704 706 708 708 710 711 711 711 710 708 706 704 700 697 695 693 690 686 683 680 677 676
746 738 740 738 698 707 706 700 697 696 696 692 691 690 693 692 690 689 691 693 695 697 698 700 704 705 706 707 708 708 708 707 706 705 703 700 699 697 695 693 691 689 687 685
725 728 733 729 706 697 690 693 688 686 687 688 686 686 686 686 681 682 683 685 687 689 692 695 699 700 700 703 704 705 706 707 707 706 705 703 702 701 699 697 696 694 694 694
720 714 712 695 685 680 675 672 676 683 681 677 679 679 677 678 674 675 675 675 678 681 684 688 691 694 694 697 699 701 703 704 705 705 705 704 704 702 700 699 698 698 698 698
Wind_Speed
3 4 2 4 3 4 6 3 2 4 3 5 5 10 20 9 7 7 5 2 4 5 1 6 13 16 21 24 28 30 32 32 28 25 25 25 25 27 28 27 28 31 32 31
5 1 3 5 5 5 4 2 4 5 1 1 7 20 14 6 5 3 6 6 5 1 5 5 18 24 26 28 28 27 26 27 26 26 26 25 27 27 29 30 30 30 32 35
4 2 4 2 2 3 3 3 2 1 7 3 7 7 5 2 1 2 2 4 3 3 7 7 14 23 28 28 29 30 31 29 28 29 26 25 27 27 24 23 24 23 24 28
3 3 4 1 1 3 1 4 3 3 4 3 4 5 5 4 5 4 5 6 3 4 4 5 10 18 23 27 24 28 31 29 27 27 25 24 24 26 26 27 28 28 28 30
3 6 4 2 2 3 2 2 2 1 1 3 2 3 7 2 7 8 9 8 4 4 5 8 10 18 22 21 22 25 29 28 27 26 24 25 26 27 28 28 29 29 29 29
3 1 1 1 2 2 4 4 5 4 2 3 2 3 6 5 6 3 4 7 2 7 7 7 15 17 19 18 24 25 26 26 26 26 27 26 28 29 29 28 29 28 28 28
1 2 1 2 3 1 2 4 3 5 4 5 3 1 11 6 6 4 6 6 5 7 7 8 8 16 20 23 27 26 25 27 27 27 28 28 29 31 32 32 29 29 28 28
6 4 5 3 1 4 2 5 5 5 2 4 3 6 6 5 2 5 6 4 6 7 6 7 7 14 16 24 25 25 26 27 27 28 28 29 30 29 30 32 31 32 31 30
5 2 2 4 2 2 3 1 2 7 2 3 3 7 10 6 7 5 7 3 8 8 7 8 9 13 19 24 26 25 27 28 27 28 28 30 29 29 31 34 35 35 33 32
5 4 1 2 1 4 2 5 3 3 1 4 5 6 6 4 3 6 8 6 8 7 8 7 7 14 21 25 26 25 25 25 27 27 28 28 30 30 32 33 34 35 33 31
3 3 1 2 6 6 2 1 4 3 3 4 2 6 8 7 5 7 9 8 7 8 8 7 7 16 21 23 23 25 25 26 27 27 29 29 29 29 30 30 30 30 30 30
4 4 3 3 0 1 2 5 5 4 5 1 3 8 3 7 7 7 8 8 8 6 6 7 7 15 17 20 23 24 25 25 27 28 29 28 28 27 28 29 29 26 30 32
5 1 2 3 2 3 4 5 4 4 3 6 5 7 2 3 5 7 8 9 8 6 7 5 5 5 13 19 22 23 25 25 27 28 27 28 26 26 28 29 28 27 26 28
4 2 5 5 3 5 5 5 7 5 4 5 9 10 21 13 8 8 8 9 8 7 7 3 4 9 15 18 20 23 25 26 28 27 26 25 26 27 27 27 24 20 16 17
3 4 2 3 4 2 3 5 12 10 7 8 13 10 18 9 9 9 6 5 5 7 5 2 6 8 15 17 20 24 26 27 28 27 26 26 26 25 25 24 23 22 16 10
1 2 2 4 1 5 5 10 13 17 7 13 14 21 26 21 9 6 10 6 8 8 6 3 5 7 11 15 19 25 26 27 28 27 26 28 26 26 26 25 23 25 25 22
5 5 3 5 3 4 6 10 17 5 5 9 9 16 2 6 4 6 8 7 9 7 6 4 4 6 11 15 21 24 24 23 25 26 27 27 27 25 25 25 25 26 27 27
5 4 2 3 2 3 5 2 7 10 7 17 8 12 9 8 6 9 8 7 8 6 7 5 3 7 15 17 19 21 19 18 20 22 24 25 26 24 25 25 27 26 27 30
1 3 2 3 3 7 9 3 7 8 9 21 22 18 12 2 3 8 6 9 9 6 5 7 7 8 12 13 15 16 16 16 18 21 23 24 23 22 24 25 25 25 27 30
5 5 3 3 4 6 6 3 4 4 5 7 16 14 7 5 1 5 3 4 6 8 8 9 6 6 9 10 12 13 13 16 19 18 19 20 20 22 22 25 25 26 24 28
4 2 5 1 3 8 10 5 5 5 6 5 9 7 8 6 6 3 1 2 5 9 12 9 8 7 6 8 9 11 10 13 13 13 14 18 20 23 24 26 27 27 27 29
8 9 4 3 2 10 7 6 7 4 2 2 4 5 7 8 4 4 5 6 8 8 9 12 9 9 5 5 6 8 8 9 9 10 14 17 19 22 23 25 27 29 28 28
4 7 7 10 8 2 7 6 7 2 3 3 3 5 7 7 7 8 7 8 10 8 13 14 14 10 7 6 5 6 5 6 7 9 13 15 18 20 23 25 26 26 27 21
5 4 3 3 6 18 16 14 9 6 9 6 7 6 6 9 8 8 7 7 9 10 14 19 16 13 12 10 8 8 4 2 3 6 9 12 14 17 19 21 22 24 23 22
4 10 6 6 8 11 14 12 12 11 11 10 8 8 12 10 13 10 7 8 9 11 17 21 19 18 19 14 13 10 7 4 3 1 4 7 9 11 14 18 17 18 17 17
5 7 6 7 10 5 5 3 4 7 9 11 8 7 9 10 13 7 9 8 10 11 18 19 24 23 22 19 18 14 12 9 6 5 1 2 3 6 8 10 13 12 12 11
Wind_Direction
17 70 214 143 111 106 108 103 283 270 326 357 267 275 284 283 257 268 267 302 130 157 228 351 352 344 342 343 340 335 331 327 319 318 314 306 300 297 293 289 284 280 276 272
35 157 140 126 99 103 90 99 273 278 337 338 303 291 278 264 244 211 169 151 162 33 328 301 344 344 341 336 332 329 325 318 312 313 306 297 295 291 289 287 281 277 271 268
147 145 146 127 125 108 132 167 197 233 333 235 296 292 341 34 96 85 154 151 146 11 337 332 340 331 331 329 330 325 321 314 310 310 306 301 298 295 292 286 282 275 273 273
117 145 136 119 168 128 190 146 80 334 3 281 16 277 302 294 284 227 200 199 176 347 325 319 321 317 323 318 313 315 315 310 307 307 303 298 292 290 288 289 286 281 275 272
193 154 147 168 256 161 154 78 73 74 115 16 343 61 273 343 267 240 222 219 220 311 319 312 307 303 309 311 311 312 313 310 305 304 297 292 288 285 287 286 283 280 275 268
99 46 104 122 81 71 142 91 53 48 46 13 264 108 275 208 217 228 201 203 257 325 311 278 295 305 310 321 322 317 312 309 309 304 300 293 287 287 286 283 283 282 277 270
77 149 107 125 109 17 90 73 342 350 7 222 360 308 248 258 244 227 206 186 297 286 291 299 309 325 325 327 324 319 317 310 310 307 302 297 290 285 280 279 276 272 271 268
155 293 163 154 175 192 157 154 154 218 246 280 332 235 250 219 277 241 157 172 271 298 294 292 310 316 316 322 317 316 314 309 310 308 303 300 294 288 283 278 272 268 264 260
139 173 86 46 72 73 199 126 133 101 55 40 255 285 288 246 253 182 215 307 315 298 308 314 314 315 327 321 316 316 314 311 312 311 307 301 295 288 283 281 275 267 263 257
187 96 35 146 99 51 139 142 78 4 92 297 283 279 244 292 274 233 243 255 302 316 318 308 318 327 326 317 314 317 316 314 314 314 309 303 298 294 290 285 279 266 260 254
138 103 80 89 200 178 131 358 46 112 120 174 277 262 218 225 233 238 233 241 288 296 298 305 311 317 318 314 321 319 321 322 318 317 312 308 306 304 300 293 294 271 260 251
184 129 161 193 19 192 169 181 159 124 227 159 140 270 195 226 248 227 229 259 280 272 288 303 304 316 315 319 322 322 322 325 322 319 315 313 312 312 307 302 299 296 264 254
190 264 72 350 15 2 220 186 123 114 92 197 141 262 170 243 220 235 242 271 289 289 298 288 290 305 319 322 322 325 326 328 324 322 321 319 321 322 318 315 316 314 296 263
103 115 184 192 163 127 190 181 171 137 132 182 229 280 283 277 262 258 261 268 278 271 266 269 327 335 323 322 323 325 328 336 329 327 326 325 331 335 332 333 339 333 322 293
138 210 186 247 219 195 219 180 178 203 190 190 269 222 261 266 270 273 252 257 267 274 286 344 334 331 327 324 330 329 336 343 339 330 331 331 342 349 353 355 358 0 9 359
84 224 143 291 298 184 257 215 197 219 219 257 264 283 272 273 277 268 269 278 273 283 287 315 315 323 324 323 328 329 338 348 351 341 335 344 354 359 359 359 9 23 23 27
157 144 122 262 358 312 284 227 198 184 193 196 200 237 338 277 249 254 261 232 249 248 248 281 278 317 317 320 333 331 339 352 356 348 348 352 1 1 7 9 14 23 28 32
148 123 85 239 360 287 244 179 176 194 220 213 261 255 233 240 254 252 230 224 243 219 232 244 262 306 320 327 336 337 347 359 1 354 355 0 5 4 12 19 22 24 38 41
70 128 96 168 203 306 296 178 151 171 277 208 222 248 259 228 280 282 224 211 221 200 211 224 251 291 314 326 338 341 357 9 14 5 5 3 14 16 22 23 22 28 40 47
100 70 123 94 164 229 240 159 175 169 294 191 193 230 213 155 272 258 234 186 201 204 203 227 247 285 311 333 338 340 357 18 16 13 17 16 28 32 30 37 30 36 44 51
130 44 175 156 243 286 250 145 159 96 239 155 184 206 161 196 211 228 200 179 184 208 216 229 238 263 295 317 329 334 348 12 12 19 33 35 36 46 53 56 52 47 47 52
164 154 180 93 99 268 141 79 185 225 310 156 196 205 207 239 259 235 209 187 208 215 206 213 224 238 258 277 305 318 334 0 15 38 43 41 42 48 50 56 60 59 56 55
205 186 177 192 208 243 211 221 227 234 256 282 208 206 215 243 245 218 217 207 214 218 213 211 216 225 229 237 254 279 315 358 15 40 51 54 58 57 59 59 61 61 65 57
229 175 196 128 232 236 240 256 257 232 241 243 240 238 201 241 245 245 217 208 206 212 208 209 205 215 225 219 227 239 258 319 352 46 55 61 65 67 68 69 71 72 72 69
187 143 174 263 285 280 264 231 240 244 243 251 252 233 239 236 254 232 226 209 208 207 205 203 202 214 221 212 221 221 226 237 271 62 72 66 64 63 69 66 60 71 70 75
194 175 179 222 216 207 237 214 196 217 241 248 237 262 240 221 243 221 234 216 199 200 199 196 208 219 221 213 218 217 217 221 233 244 198 91 78 85 84 89 91 75 74 70